Kelso-Longview, WA

11:04 PM PDT on March 24, 2017 (GMT -0700)
Kelso-Longview

Weather History for KKLS - November, 2014

Change the Weather History Date:

Thursday, November 20, 2014

  Actual Average Record
Temperature  
Mean Temperature 42 °F -  
Max Temperature 48 °F 48 °F 60 °F (2002)
Min Temperature 37 °F 38 °F 28 °F (2011)
Degree Days  
Heating Degree Days 22    
Moisture  
Dew Point 36 °F    
Average Humidity 78    
Maximum Humidity 87    
Minimum Humidity 70    
Precipitation  
Precipitation 0.02 in - - ()
Sea Level Pressure  
Sea Level Pressure 30.02 in    
Wind  
Wind Speed 10 mph (SSE)    
Max Wind Speed 14 mph    
Max Gust Speed 21 mph    
Visibility 8 miles    
Events      
Averages and records for this station are not official NWS values.
T = Trace of Precipitation, MM = Missing Value Source: NWS Daily Summary

Daily Weather History Graph

Daily Weather History Graph

Search for Another Location

Airport or City:

Trip Planner

Search our weather history database for the weather conditions in past years. The results will help you decide how hot, cold, wet, or windy it might be!

Date:

Astronomy

Nov. 20, 2014 Rise Set
Actual Time 7:19 AM PST 4:34 PM PST
Civil Twilight 6:46 AM PST 5:07 PM PST
Nautical Twilight 6:09 AM PST 5:44 PM PST
Astronomical Twilight 5:34 AM PST 6:19 PM PST
Moon 5:13 AM PST (11/20) 3:47 PM PST (11/20)
Length of Visible Light 10h 21m
Length of Day
9h 15m
Waning Crescent, 3% of the Moon is Illuminated
Nov 20
Waning Crescent
Nov 22
New
Nov 29
First Quarter
Dec 6
Full
Dec 14
Last Quarter

Hourly Weather History & Observations

Time (PST) Temp. Windchill Dew Point Humidity Pressure Visibility Wind Dir Wind Speed Gust Speed Precip Events Conditions
12:15 AM 39.2 °F 31.6 °F 30.2 °F 70% 29.99 in 10.0 mi SE 12.7 mph 20.7 mph N/A   Overcast
12:35 AM 39.2 °F 32.0 °F 32.0 °F 75% 29.99 in 10.0 mi SSE 11.5 mph 17.3 mph N/A   Overcast
12:55 AM 39.2 °F 31.2 °F 32.0 °F 75% 30.00 in 10.0 mi SSE 13.8 mph 19.6 mph N/A   Overcast
1:15 AM 39.2 °F 31.2 °F 32.0 °F 75% 30.01 in 10.0 mi SSE 13.8 mph 17.3 mph N/A   Overcast
1:35 AM 39.2 °F 32.5 °F 32.0 °F 75% 30.02 in 8.0 mi SE 10.4 mph 19.6 mph N/A   Overcast
1:55 AM 39.2 °F 34.2 °F 33.8 °F 81% 30.02 in 6.0 mi SE 6.9 mph - 0.01 in   Overcast
2:15 AM 37.4 °F 31.4 °F 33.8 °F 87% 30.02 in 8.0 mi SE 8.1 mph 16.1 mph N/A   Overcast
2:35 AM 37.4 °F 30.8 °F 33.8 °F 87% 30.03 in 7.0 mi SE 9.2 mph 19.6 mph N/A   Mostly Cloudy
2:55 AM 37.4 °F 32.1 °F 33.8 °F 87% 30.03 in 7.0 mi SE 6.9 mph 16.1 mph N/A   Overcast
3:15 AM 39.2 °F 31.2 °F 33.8 °F 81% 30.03 in 7.0 mi SE 13.8 mph 19.6 mph N/A   Overcast
3:35 AM 39.2 °F 32.5 °F 33.8 °F 81% 30.03 in 7.0 mi SE 10.4 mph 18.4 mph N/A   Overcast
3:55 AM 39.2 °F 33.6 °F 33.8 °F 81% 30.04 in 8.0 mi SE 8.1 mph 18.4 mph N/A   Overcast
4:15 AM 39.2 °F 33.0 °F 33.8 °F 81% 30.05 in 7.0 mi SE 9.2 mph - N/A   Overcast
4:35 AM 39.2 °F 32.0 °F 33.8 °F 81% 30.04 in 6.0 mi SE 11.5 mph 16.1 mph N/A   Overcast
4:55 AM 39.2 °F 32.5 °F 33.8 °F 81% 30.04 in 7.0 mi SE 10.4 mph 16.1 mph N/A   Overcast
5:15 AM 39.2 °F 32.5 °F 33.8 °F 81% 30.04 in 7.0 mi SSE 10.4 mph 17.3 mph N/A   Overcast
5:35 AM 39.2 °F 32.0 °F 33.8 °F 81% 30.05 in 5.0 mi SE 11.5 mph 17.3 mph N/A   Overcast
5:55 AM 39.2 °F 32.5 °F 33.8 °F 81% 30.05 in 5.0 mi SE 10.4 mph 18.4 mph N/A   Overcast
6:15 AM 39.2 °F 33.0 °F 35.6 °F 87% 30.05 in 5.0 mi SSE 9.2 mph - N/A   Overcast
6:35 AM 39.2 °F 33.6 °F 35.6 °F 87% 30.04 in 5.0 mi SE 8.1 mph - N/A   Overcast
6:55 AM 39.2 °F 33.0 °F 33.8 °F 81% 30.05 in 5.0 mi SE 9.2 mph - N/A   Overcast
7:15 AM 39.2 °F 33.6 °F 35.6 °F 87% 30.05 in 5.0 mi SE 8.1 mph - N/A   Overcast
7:35 AM 39.2 °F 33.6 °F 35.6 °F 87% 30.05 in 4.0 mi SE 8.1 mph - N/A   Overcast
7:55 AM 39.2 °F 34.2 °F 35.6 °F 87% 30.05 in 5.0 mi SE 6.9 mph - N/A   Overcast
8:15 AM 39.2 °F 33.6 °F 35.6 °F 87% 30.05 in 5.0 mi SSE 8.1 mph - 0.01 in   Overcast
8:35 AM 41.0 °F 35.2 °F 35.6 °F 81% 30.05 in 5.0 mi SSE 9.2 mph - 0.01 in   Overcast
8:55 AM 41.0 °F 36.4 °F 35.6 °F 81% 30.05 in 5.0 mi SE 6.9 mph - 0.01 in   Overcast
9:15 AM 41.0 °F 35.8 °F 35.6 °F 81% 30.06 in 5.0 mi SE 8.1 mph - N/A   Overcast
9:35 AM 41.0 °F 36.4 °F 35.6 °F 81% 30.06 in 5.0 mi SE 6.9 mph - N/A   Overcast
9:55 AM 42.8 °F 37.0 °F 37.4 °F 81% 30.06 in 5.0 mi SSE 10.4 mph - N/A   Overcast
10:15 AM 42.8 °F 37.0 °F 35.6 °F 76% 30.05 in 5.0 mi SSE 10.4 mph - N/A   Overcast
10:35 AM 42.8 °F 38.0 °F 37.4 °F 81% 30.05 in 5.0 mi SSE 8.1 mph - N/A   Overcast
10:55 AM 42.8 °F 38.6 °F 37.4 °F 81% 30.04 in 5.0 mi SE 6.9 mph - N/A   Overcast
11:15 AM 42.8 °F 37.0 °F 37.4 °F 81% 30.04 in 8.0 mi SSE 10.4 mph - N/A   Overcast
11:35 AM 46.4 °F 40.7 °F 37.4 °F 71% 30.03 in 10.0 mi SSE 12.7 mph - N/A   Overcast
11:55 AM 44.6 °F 38.8 °F 37.4 °F 76% 30.03 in 9.0 mi SE 11.5 mph - N/A   Overcast
12:15 PM 44.6 °F 39.2 °F 37.4 °F 76% 30.03 in 9.0 mi SSE 10.4 mph - N/A   Overcast
12:35 PM 44.6 °F 40.2 °F 37.4 °F 76% 30.02 in 10.0 mi SSE 8.1 mph - N/A   Overcast
12:55 PM 46.4 °F 42.4 °F 39.2 °F 76% 30.02 in 10.0 mi SSE 8.1 mph - N/A   Overcast
1:15 PM 46.4 °F 42.4 °F 39.2 °F 76% 30.02 in 10.0 mi SSE 8.1 mph - N/A   Overcast
1:35 PM 46.4 °F 41.5 °F 39.2 °F 76% 30.01 in 10.0 mi SSE 10.4 mph - N/A   Overcast
1:55 PM 46.4 °F 41.9 °F 39.2 °F 76% 30.01 in 10.0 mi South 9.2 mph - N/A   Overcast
2:15 PM 46.4 °F 43.5 °F 39.2 °F 76% 30.00 in 10.0 mi SSE 5.8 mph - N/A   Overcast
2:35 PM 48.2 °F - 41.0 °F 76% 30.00 in 10.0 mi South 4.6 mph - N/A   Overcast
2:55 PM 48.2 °F - 41.0 °F 76% 30.00 in 10.0 mi SSE 5.8 mph - N/A   Overcast
3:15 PM 48.2 °F - 41.0 °F 76% 29.99 in 10.0 mi SSE 4.6 mph - N/A   Overcast
3:35 PM 48.2 °F - 41.0 °F 76% 30.00 in 10.0 mi South 3.5 mph - N/A   Overcast
3:55 PM 46.4 °F 43.5 °F 39.2 °F 76% 29.99 in 9.0 mi SSE 5.8 mph - N/A   Overcast
4:15 PM 46.4 °F 43.5 °F 39.2 °F 76% 29.99 in 10.0 mi SSE 5.8 mph - N/A   Overcast
4:35 PM 46.4 °F 42.4 °F 39.2 °F 76% 29.99 in 10.0 mi SSE 8.1 mph - N/A   Overcast
4:55 PM 46.4 °F 42.9 °F 39.2 °F 76% 30.00 in 10.0 mi SE 6.9 mph - N/A   Overcast
5:15 PM 46.4 °F 41.9 °F 39.2 °F 76% 30.00 in 10.0 mi SSE 9.2 mph - N/A   Overcast
5:35 PM 46.4 °F 42.9 °F 39.2 °F 76% 29.99 in 10.0 mi SSE 6.9 mph - N/A   Overcast
5:55 PM 46.4 °F 42.9 °F 39.2 °F 76% 29.99 in 10.0 mi South 6.9 mph - N/A   Overcast
6:15 PM 46.4 °F 42.9 °F 37.4 °F 71% 29.99 in 10.0 mi SSE 6.9 mph - N/A   Overcast
6:35 PM 46.4 °F 43.5 °F 37.4 °F 71% 29.99 in 10.0 mi SSE 5.8 mph - N/A   Overcast
6:55 PM 44.6 °F 39.7 °F 37.4 °F 76% 29.99 in 10.0 mi SE 9.2 mph - N/A   Overcast
7:15 PM 46.4 °F 41.1 °F 37.4 °F 71% 29.98 in 10.0 mi SE 11.5 mph - N/A   Mostly Cloudy
7:35 PM 46.4 °F 41.9 °F 37.4 °F 71% 29.99 in 10.0 mi SSE 9.2 mph - N/A   Overcast
7:55 PM 44.6 °F 40.2 °F 37.4 °F 76% 29.99 in 10.0 mi SSE 8.1 mph - N/A   Mostly Cloudy
8:15 PM 44.6 °F 40.2 °F 35.6 °F 71% 29.99 in 10.0 mi SE 8.1 mph - N/A   Clear
8:35 PM 44.6 °F 40.7 °F 35.6 °F 71% 29.99 in 10.0 mi SSE 6.9 mph - N/A   Clear
8:55 PM 44.6 °F 40.7 °F 35.6 °F 71% 30.00 in 10.0 mi SSE 6.9 mph - N/A   Scattered Clouds
9:15 PM 44.6 °F 39.7 °F 35.6 °F 71% 30.00 in 10.0 mi SE 9.2 mph - N/A   Mostly Cloudy
9:35 PM 44.6 °F 42.2 °F 35.6 °F 71% 30.01 in 10.0 mi SE 4.6 mph - N/A   Overcast
9:55 PM 44.6 °F 40.2 °F 37.4 °F 76% 30.00 in 10.0 mi SE 8.1 mph - N/A   Overcast
10:15 PM 44.6 °F 40.7 °F 35.6 °F 71% 29.99 in 10.0 mi SSE 6.9 mph - N/A   Overcast
10:35 PM 44.6 °F 39.7 °F 37.4 °F 76% 29.98 in 10.0 mi SSE 9.2 mph - N/A   Overcast
10:55 PM 42.8 °F 38.6 °F 35.6 °F 76% 29.98 in 10.0 mi SSE 6.9 mph - N/A   Mostly Cloudy
11:15 PM 42.8 °F 38.0 °F 35.6 °F 76% 29.99 in 10.0 mi SSE 8.1 mph - N/A   Mostly Cloudy
11:35 PM 42.8 °F 37.5 °F 35.6 °F 76% 29.98 in 10.0 mi SE 9.2 mph - N/A   Overcast
11:55 PM 42.8 °F 36.2 °F 35.6 °F 76% 29.97 in 10.0 mi SE 12.7 mph 18.4 mph N/A   Overcast